Time,TemperatureF,DewpointF,PressureIn,WindDirection,WindDirectionDegrees,WindSpeedMPH,WindSpeedGustMPH,Humidity,HourlyPrecipIn,Conditions,Clouds,dailyrainin,SoftwareType,DateUTC
2013-01-18 00:01:00,32.9,17.7,29.97,North,357,0.0,0.0,53,0.00,,---,0.00,VWS V14.00,2013-01-18 08:01:00,
2013-01-18 00:06:00,32.9,17.7,29.97,North,357,0.0,0.0,53,0.00,,---,0.00,VWS V14.00,2013-01-18 08:06:00,
2013-01-18 00:11:00,32.5,17.3,29.97,North,357,0.0,0.0,53,0.00,,---,0.00,VWS V14.00,2013-01-18 08:11:00,
2013-01-18 00:16:00,32.5,17.3,29.97,North,357,0.0,0.0,53,0.00,,---,0.00,VWS V14.00,2013-01-18 08:16:00,
2013-01-18 00:21:00,32.2,17.0,29.97,North,357,0.0,0.0,53,0.00,,---,0.00,VWS V14.00,2013-01-18 08:21:00,
2013-01-18 00:27:00,32.0,16.8,29.97,North,357,0.0,0.0,53,0.00,,---,0.00,VWS V14.00,2013-01-18 08:27:00,
2013-01-18 00:32:00,31.8,17.1,29.97,North,357,0.0,0.0,54,0.00,,---,0.00,VWS V14.00,2013-01-18 08:32:00,
2013-01-18 00:38:00,31.6,16.9,29.97,North,357,0.0,0.0,54,0.00,,---,0.00,VWS V14.00,2013-01-18 08:38:00,
2013-01-18 00:43:00,31.5,16.8,29.97,North,357,0.0,0.0,54,0.00,,---,0.00,VWS V14.00,2013-01-18 08:43:00,
2013-01-18 00:48:00,31.5,16.8,29.97,North,357,0.0,0.0,54,0.00,,---,0.00,VWS V14.00,2013-01-18 08:48:00,
2013-01-18 00:53:00,31.5,16.8,29.97,North,357,0.0,0.0,54,0.00,,---,0.00,VWS V14.00,2013-01-18 08:53:00,
2013-01-18 00:58:00,31.3,16.6,29.97,North,357,0.0,0.0,54,0.00,,---,0.00,VWS V14.00,2013-01-18 08:58:00,
2013-01-18 01:03:00,31.1,16.4,29.97,North,357,0.0,0.0,54,0.00,,---,0.00,VWS V14.00,2013-01-18 09:03:00,
2013-01-18 01:09:00,31.1,16.4,29.97,North,357,0.0,0.0,54,0.00,,---,0.00,VWS V14.00,2013-01-18 09:09:00,
2013-01-18 01:14:00,31.1,16.4,29.97,North,357,0.0,0.0,54,0.00,,---,0.00,VWS V14.00,2013-01-18 09:14:00,
2013-01-18 01:19:00,31.1,16.8,29.97,North,357,0.0,0.0,55,0.00,,---,0.00,VWS V14.00,2013-01-18 09:19:00,
2013-01-18 01:24:00,30.9,16.7,29.97,North,357,0.0,0.0,55,0.00,,---,0.00,VWS V14.00,2013-01-18 09:24:00,
2013-01-18 01:30:00,30.9,16.7,29.97,North,357,0.0,0.0,55,0.00,,---,0.00,VWS V14.00,2013-01-18 09:30:00,
2013-01-18 01:35:00,30.7,16.5,29.97,North,357,0.0,0.0,55,0.00,,---,0.00,VWS V14.00,2013-01-18 09:35:00,
2013-01-18 01:40:00,30.7,16.5,29.97,North,357,0.0,0.0,55,0.00,,---,0.00,VWS V14.00,2013-01-18 09:40:00,
2013-01-18 01:46:00,30.7,16.5,29.97,North,357,0.0,0.0,55,0.00,,---,0.00,VWS V14.00,2013-01-18 09:46:00,
2013-01-18 01:52:00,30.7,16.5,29.97,North,357,0.0,0.0,55,0.00,,---,0.00,VWS V14.00,2013-01-18 09:52:00,
2013-01-18 01:58:00,30.6,16.3,29.97,North,357,0.0,0.0,55,0.00,,---,0.00,VWS V14.00,2013-01-18 09:58:00,
2013-01-18 02:04:00,30.4,16.2,29.97,North,357,0.0,0.0,55,0.00,,---,0.00,VWS V14.00,2013-01-18 10:04:00,
2013-01-18 02:09:00,30.2,16.4,29.97,North,357,0.0,0.0,56,0.00,,---,0.00,VWS V14.00,2013-01-18 10:09:00,
2013-01-18 02:14:00,30.2,16.4,29.97,North,357,0.0,0.0,56,0.00,,---,0.00,VWS V14.00,2013-01-18 10:14:00,
2013-01-18 02:19:00,29.8,16.1,29.97,North,357,0.0,0.0,56,0.00,,---,0.00,VWS V14.00,2013-01-18 10:19:00,
2013-01-18 02:24:00,29.8,16.1,29.97,North,357,0.0,0.0,56,0.00,,---,0.00,VWS V14.00,2013-01-18 10:24:00,
2013-01-18 02:30:00,30.0,16.2,29.97,North,357,0.0,0.0,56,0.00,,---,0.00,VWS V14.00,2013-01-18 10:30:00,
2013-01-18 02:35:00,30.0,16.2,29.97,North,357,0.0,0.0,56,0.00,,---,0.00,VWS V14.00,2013-01-18 10:35:00,
2013-01-18 02:40:00,30.0,16.2,29.97,North,357,0.0,0.0,56,0.00,,---,0.00,VWS V14.00,2013-01-18 10:40:00,
2013-01-18 02:45:00,30.2,16.8,29.97,North,357,0.0,0.0,57,0.00,,---,0.00,VWS V14.00,2013-01-18 10:45:00,
2013-01-18 02:51:00,30.2,16.8,29.97,North,357,0.0,0.0,57,0.00,,---,0.00,VWS V14.00,2013-01-18 10:51:00,
2013-01-18 02:56:00,30.2,16.8,29.97,North,357,0.0,0.0,57,0.00,,---,0.00,VWS V14.00,2013-01-18 10:56:00,
2013-01-18 03:01:00,29.8,16.5,29.97,North,357,0.0,0.0,57,0.00,,---,0.00,VWS V14.00,2013-01-18 11:01:00,
2013-01-18 03:06:00,29.7,16.3,29.97,North,357,0.0,0.0,57,0.00,,---,0.00,VWS V14.00,2013-01-18 11:06:00,
2013-01-18 03:12:00,29.5,16.1,29.97,North,357,0.0,0.0,57,0.00,,---,0.00,VWS V14.00,2013-01-18 11:12:00,
2013-01-18 03:17:00,29.5,16.1,29.97,North,357,0.0,0.0,57,0.00,,---,0.00,VWS V14.00,2013-01-18 11:17:00,
2013-01-18 03:23:00,29.3,16.0,29.97,North,357,0.0,0.0,57,0.00,,---,0.00,VWS V14.00,2013-01-18 11:23:00,
2013-01-18 03:28:00,29.3,16.0,29.97,North,357,0.0,0.0,57,0.00,,---,0.00,VWS V14.00,2013-01-18 11:28:00,
2013-01-18 03:34:00,29.3,16.4,29.97,North,357,0.0,0.0,58,0.00,,---,0.00,VWS V14.00,2013-01-18 11:34:00,
2013-01-18 03:39:00,29.7,16.7,29.97,North,357,0.0,0.0,58,0.00,,---,0.00,VWS V14.00,2013-01-18 11:39:00,
2013-01-18 03:44:00,29.7,16.7,29.97,North,357,0.0,0.0,58,0.00,,---,0.00,VWS V14.00,2013-01-18 11:44:00,
2013-01-18 03:49:00,29.7,16.7,29.97,North,357,0.0,0.0,58,0.00,,---,0.00,VWS V14.00,2013-01-18 11:49:00,
2013-01-18 03:55:00,29.5,16.5,29.97,North,357,0.0,0.0,58,0.00,,---,0.00,VWS V14.00,2013-01-18 11:55:00,
2013-01-18 04:01:00,29.5,16.5,29.97,North,357,0.0,0.0,58,0.00,,---,0.00,VWS V14.00,2013-01-18 12:01:00,
2013-01-18 04:06:00,29.5,16.5,29.97,North,357,0.0,0.0,58,0.00,,---,0.00,VWS V14.00,2013-01-18 12:06:00,
2013-01-18 04:11:00,29.3,16.4,29.97,North,357,0.0,0.0,58,0.00,,---,0.00,VWS V14.00,2013-01-18 12:11:00,
2013-01-18 04:16:00,28.9,16.0,29.97,North,357,0.0,0.0,58,0.00,,---,0.00,VWS V14.00,2013-01-18 12:16:00,
2013-01-18 04:22:00,28.9,16.0,29.97,North,357,0.0,0.0,58,0.00,,---,0.00,VWS V14.00,2013-01-18 12:22:00,
2013-01-18 04:27:00,28.8,16.2,29.97,North,357,0.0,0.0,59,0.00,,---,0.00,VWS V14.00,2013-01-18 12:27:00,
2013-01-18 04:32:00,28.8,16.2,29.97,North,357,0.0,0.0,59,0.00,,---,0.00,VWS V14.00,2013-01-18 12:32:00,
2013-01-18 04:38:00,28.8,16.2,29.97,North,357,0.0,0.0,59,0.00,,---,0.00,VWS V14.00,2013-01-18 12:38:00,
2013-01-18 04:44:00,28.6,16.1,29.97,North,357,0.0,0.0,59,0.00,,---,0.00,VWS V14.00,2013-01-18 12:44:00,
2013-01-18 04:50:00,28.8,16.6,29.97,North,357,0.0,0.0,60,0.00,,---,0.00,VWS V14.00,2013-01-18 12:50:00,
2013-01-18 04:55:00,28.9,16.8,29.97,North,357,0.0,0.0,60,0.00,,---,0.00,VWS V14.00,2013-01-18 12:55:00,
2013-01-18 05:00:00,28.9,16.8,29.97,North,357,0.0,0.0,60,0.00,,---,0.00,VWS V14.00,2013-01-18 13:00:00,
2013-01-18 05:05:00,28.8,16.6,29.94,North,357,0.0,0.0,60,0.00,,---,0.00,VWS V14.00,2013-01-18 13:05:00,
2013-01-18 05:10:00,28.6,16.5,29.94,North,357,0.0,0.0,60,0.00,,---,0.00,VWS V14.00,2013-01-18 13:10:00,
2013-01-18 05:16:00,28.6,16.5,29.94,North,357,0.0,0.0,60,0.00,,---,0.00,VWS V14.00,2013-01-18 13:16:00,
2013-01-18 05:22:00,28.6,16.5,29.94,North,357,0.0,0.0,60,0.00,,---,0.00,VWS V14.00,2013-01-18 13:22:00,
2013-01-18 05:27:00,28.2,16.5,29.94,North,357,0.0,0.0,61,0.00,,---,0.00,VWS V14.00,2013-01-18 13:27:00,
2013-01-18 05:32:00,28.0,16.3,29.94,North,357,0.0,0.0,61,0.00,,---,0.00,VWS V14.00,2013-01-18 13:32:00,
2013-01-18 05:38:00,27.9,16.2,29.94,North,357,0.0,0.0,61,0.00,,---,0.00,VWS V14.00,2013-01-18 13:38:00,
2013-01-18 05:43:00,27.9,16.2,29.94,North,357,0.0,0.0,61,0.00,,---,0.00,VWS V14.00,2013-01-18 13:43:00,
2013-01-18 05:49:00,27.9,16.5,29.94,North,357,0.0,0.0,62,0.00,,---,0.00,VWS V14.00,2013-01-18 13:49:00,
2013-01-18 05:54:00,27.9,16.5,29.94,North,357,0.0,0.0,62,0.00,,---,0.00,VWS V14.00,2013-01-18 13:54:00,
2013-01-18 05:59:00,28.0,16.7,29.94,North,357,0.0,0.0,62,0.00,,---,0.00,VWS V14.00,2013-01-18 13:59:00,
2013-01-18 06:05:00,28.0,16.7,29.94,North,357,0.0,0.0,62,0.00,,---,0.00,VWS V14.00,2013-01-18 14:05:00,
2013-01-18 06:11:00,27.9,16.5,29.94,North,357,0.0,0.0,62,0.00,,---,0.00,VWS V14.00,2013-01-18 14:11:00,
2013-01-18 06:16:00,27.9,16.5,29.94,North,357,0.0,0.0,62,0.00,,---,0.00,VWS V14.00,2013-01-18 14:16:00,
2013-01-18 06:21:00,27.9,16.9,29.97,North,357,0.0,0.0,63,0.00,,---,0.00,VWS V14.00,2013-01-18 14:21:00,
2013-01-18 06:26:00,27.9,16.9,29.97,North,357,0.0,0.0,63,0.00,,---,0.00,VWS V14.00,2013-01-18 14:26:00,
2013-01-18 06:32:00,27.7,16.7,29.97,North,357,0.0,0.0,63,0.00,,---,0.00,VWS V14.00,2013-01-18 14:32:00,
2013-01-18 06:38:00,27.7,16.7,29.97,North,357,0.0,0.0,63,0.00,,---,0.00,VWS V14.00,2013-01-18 14:38:00,
2013-01-18 06:43:00,27.7,16.7,29.97,North,357,0.0,0.0,63,0.00,,---,0.00,VWS V14.00,2013-01-18 14:43:00,
2013-01-18 06:49:00,27.7,16.7,29.97,North,357,0.0,0.0,63,0.00,,---,0.00,VWS V14.00,2013-01-18 14:49:00,
2013-01-18 06:54:00,27.7,16.7,29.97,North,357,0.0,0.0,63,0.00,,---,0.00,VWS V14.00,2013-01-18 14:54:00,
2013-01-18 06:59:00,27.9,16.9,29.97,North,357,0.0,0.0,63,0.00,,---,0.00,VWS V14.00,2013-01-18 14:59:00,
2013-01-18 07:05:00,27.9,17.3,29.97,North,357,0.0,0.0,64,0.00,,---,0.00,VWS V14.00,2013-01-18 15:05:00,
2013-01-18 07:11:00,27.7,17.1,29.97,North,357,0.0,0.0,64,0.00,,---,0.00,VWS V14.00,2013-01-18 15:11:00,
2013-01-18 07:17:00,27.7,17.1,29.97,North,357,0.0,0.0,64,0.00,,---,0.00,VWS V14.00,2013-01-18 15:17:00,
2013-01-18 07:22:00,27.5,16.9,29.97,North,357,0.0,0.0,64,0.00,,---,0.00,VWS V14.00,2013-01-18 15:22:00,
2013-01-18 07:27:00,27.3,16.8,29.97,North,357,0.0,0.0,64,0.00,,---,0.00,VWS V14.00,2013-01-18 15:27:00,
2013-01-18 07:32:00,27.1,16.6,29.97,North,357,0.0,0.0,64,0.00,,---,0.00,VWS V14.00,2013-01-18 15:32:00,
2013-01-18 07:37:00,27.1,16.6,29.97,North,357,0.0,0.0,64,0.00,,---,0.00,VWS V14.00,2013-01-18 15:37:00,
2013-01-18 07:42:00,27.3,17.1,29.97,North,357,0.0,0.0,65,0.00,,---,0.00,VWS V14.00,2013-01-18 15:42:00,
2013-01-18 07:47:00,27.7,17.5,29.97,North,357,0.0,0.0,65,0.00,,---,0.00,VWS V14.00,2013-01-18 15:47:00,
2013-01-18 07:53:00,27.7,17.5,29.97,North,357,0.0,0.0,65,0.00,,---,0.00,VWS V14.00,2013-01-18 15:53:00,
2013-01-18 07:58:00,28.0,18.2,29.97,North,357,0.0,0.0,66,0.00,,---,0.00,VWS V14.00,2013-01-18 15:58:00,
2013-01-18 08:03:00,28.4,18.5,30.00,North,357,0.0,0.0,66,0.00,,---,0.00,VWS V14.00,2013-01-18 16:03:00,
2013-01-18 08:09:00,28.6,18.3,30.00,North,357,0.0,0.0,65,0.00,,---,0.00,VWS V14.00,2013-01-18 16:09:00,
2013-01-18 08:14:00,29.1,19.2,30.00,North,357,0.0,0.0,66,0.00,,---,0.00,VWS V14.00,2013-01-18 16:14:00,
2013-01-18 08:20:00,29.5,19.5,30.00,North,357,0.0,0.0,66,0.00,,---,0.00,VWS V14.00,2013-01-18 16:20:00,
2013-01-18 08:25:00,30.0,20.0,30.00,North,357,0.0,0.0,66,0.00,,---,0.00,VWS V14.00,2013-01-18 16:25:00,
2013-01-18 08:30:00,30.9,21.3,30.00,North,357,0.0,0.0,67,0.00,,---,0.00,VWS V14.00,2013-01-18 16:30:00,
2013-01-18 08:35:00,31.8,22.1,30.00,North,357,0.0,0.0,67,0.00,,---,0.00,VWS V14.00,2013-01-18 16:35:00,
2013-01-18 08:41:00,32.7,23.3,30.00,North,357,0.0,0.0,68,0.00,,---,0.00,VWS V14.00,2013-01-18 16:41:00,
2013-01-18 08:46:00,33.3,23.9,30.00,North,357,0.0,0.0,68,0.00,,---,0.00,VWS V14.00,2013-01-18 16:46:00,
2013-01-18 08:51:00,33.8,24.4,30.00,North,357,0.0,0.0,68,0.00,,---,0.00,VWS V14.00,2013-01-18 16:51:00,
2013-01-18 08:56:00,33.8,24.4,30.00,North,357,0.0,0.0,68,0.00,,---,0.00,VWS V14.00,2013-01-18 16:56:00,
2013-01-18 09:02:00,35.4,26.3,30.00,North,357,0.0,0.0,69,0.00,,---,0.00,VWS V14.00,2013-01-18 17:02:00,
2013-01-18 09:07:00,35.8,26.3,30.00,North,357,0.0,0.0,68,0.00,,---,0.00,VWS V14.00,2013-01-18 17:07:00,
2013-01-18 09:12:00,36.5,27.3,30.00,North,357,0.0,0.0,69,0.00,,---,0.00,VWS V14.00,2013-01-18 17:12:00,
2013-01-18 09:18:00,36.9,27.7,30.00,North,357,0.0,0.0,69,0.00,,---,0.00,VWS V14.00,2013-01-18 17:18:00,
2013-01-18 09:24:00,37.6,28.4,30.00,North,357,0.0,0.0,69,0.00,,---,0.00,VWS V14.00,2013-01-18 17:24:00,
2013-01-18 09:29:00,37.9,28.7,30.00,North,357,0.0,0.0,69,0.00,,---,0.00,VWS V14.00,2013-01-18 17:29:00,
2013-01-18 09:35:00,39.0,30.1,30.03,North,357,0.0,0.0,70,0.00,,---,0.00,VWS V14.00,2013-01-18 17:35:00,
2013-01-18 09:40:00,39.7,30.8,30.03,NE,56,0.0,0.0,70,0.00,,---,0.00,VWS V14.00,2013-01-18 17:40:00,
2013-01-18 09:45:00,40.5,31.8,30.03,East,81,0.0,0.0,71,0.00,,---,0.00,VWS V14.00,2013-01-18 17:45:00,
2013-01-18 09:51:00,41.2,32.2,30.03,East,81,0.0,0.0,70,0.00,,---,0.00,VWS V14.00,2013-01-18 17:51:00,
2013-01-18 09:56:00,41.5,32.5,30.03,SE,139,0.0,0.0,70,0.00,,---,0.00,VWS V14.00,2013-01-18 17:56:00,
2013-01-18 10:02:00,41.9,32.8,30.03,SE,144,2.7,2.7,70,0.00,,---,0.00,VWS V14.00,2013-01-18 18:02:00,
2013-01-18 10:08:00,43.5,34.8,30.03,ESE,110,0.0,0.0,71,0.00,,---,0.00,VWS V14.00,2013-01-18 18:08:00,
2013-01-18 10:13:00,43.7,34.9,30.03,SE,141,0.0,0.0,71,0.00,,---,0.00,VWS V14.00,2013-01-18 18:13:00,
2013-01-18 10:18:00,45.1,36.0,30.03,South,179,3.1,3.1,70,0.00,,---,0.00,VWS V14.00,2013-01-18 18:18:00,
2013-01-18 10:23:00,45.1,36.0,30.03,South,184,3.6,3.6,70,0.00,,---,0.00,VWS V14.00,2013-01-18 18:23:00,
2013-01-18 10:28:00,47.3,37.7,30.03,SW,214,0.0,0.0,69,0.00,,---,0.00,VWS V14.00,2013-01-18 18:28:00,
2013-01-18 10:33:00,48.2,37.8,30.03,South,173,0.0,2.7,67,0.00,,---,0.00,VWS V14.00,2013-01-18 18:33:00,
2013-01-18 10:39:00,49.1,37.5,30.03,SSW,206,0.0,0.0,64,0.00,,---,0.00,VWS V14.00,2013-01-18 18:39:00,
2013-01-18 10:45:00,50.5,38.0,30.03,SSW,208,0.0,0.0,62,0.00,,---,0.00,VWS V14.00,2013-01-18 18:45:00,
2013-01-18 10:51:00,52.2,36.5,30.03,SSE,155,3.1,3.1,55,0.00,,---,0.00,VWS V14.00,2013-01-18 18:51:00,
2013-01-18 10:56:00,53.2,36.1,30.03,SSE,156,2.7,3.1,52,0.00,,---,0.00,VWS V14.00,2013-01-18 18:56:00,
2013-01-18 11:01:00,53.6,35.9,30.00,South,179,0.0,0.0,51,0.00,,---,0.00,VWS V14.00,2013-01-18 19:01:00,
2013-01-18 11:06:00,54.0,36.3,30.00,South,182,0.0,0.0,51,0.00,,---,0.00,VWS V14.00,2013-01-18 19:06:00,
2013-01-18 11:12:00,54.5,34.7,30.00,South,183,0.0,0.0,47,0.00,,---,0.00,VWS V14.00,2013-01-18 19:12:00,
2013-01-18 11:17:00,54.5,34.7,30.00,South,187,0.0,0.0,47,0.00,,---,0.00,VWS V14.00,2013-01-18 19:17:00,
2013-01-18 11:22:00,54.9,31.0,30.00,SSE,151,2.2,4.0,40,0.00,,---,0.00,VWS V14.00,2013-01-18 19:22:00,
2013-01-18 11:27:00,55.4,31.5,30.00,SSW,203,0.0,0.0,40,0.00,,---,0.00,VWS V14.00,2013-01-18 19:27:00,
2013-01-18 11:33:00,56.1,31.5,30.00,WNW,301,4.9,4.9,39,0.00,,---,0.00,VWS V14.00,2013-01-18 19:33:00,
2013-01-18 11:38:00,56.5,29.2,30.00,West,280,3.1,3.1,35,0.00,,---,0.00,VWS V14.00,2013-01-18 19:38:00,
2013-01-18 11:43:00,56.8,29.5,30.00,NNW,328,2.7,2.7,35,0.00,,---,0.00,VWS V14.00,2013-01-18 19:43:00,
2013-01-18 11:48:00,57.2,29.8,30.00,NNW,327,4.0,4.0,35,0.00,,---,0.00,VWS V14.00,2013-01-18 19:48:00,
2013-01-18 11:53:00,57.4,28.5,30.00,NW,312,0.0,4.9,33,0.00,,---,0.00,VWS V14.00,2013-01-18 19:53:00,
2013-01-18 11:58:00,57.9,28.3,30.00,WSW,243,3.1,3.1,32,0.00,,---,0.00,VWS V14.00,2013-01-18 19:58:00,
2013-01-18 12:03:00,57.9,28.3,30.00,West,273,0.0,2.7,32,0.00,,---,0.00,VWS V14.00,2013-01-18 20:03:00,
2013-01-18 12:08:00,58.5,26.3,30.00,WNW,292,0.0,3.6,29,0.00,,---,0.00,VWS V14.00,2013-01-18 20:08:00,
2013-01-18 12:14:00,58.5,26.3,30.00,West,272,3.6,5.8,29,0.00,,---,0.00,VWS V14.00,2013-01-18 20:14:00,
2013-01-18 12:20:00,58.3,25.3,29.97,West,262,4.5,4.5,28,0.00,,---,0.00,VWS V14.00,2013-01-18 20:20:00,
2013-01-18 12:26:00,59.0,25.1,29.97,WSW,257,2.7,2.7,27,0.00,,---,0.00,VWS V14.00,2013-01-18 20:26:00,
2013-01-18 12:31:00,58.6,24.8,29.97,North,353,4.0,4.0,27,0.00,,---,0.00,VWS V14.00,2013-01-18 20:31:00,
2013-01-18 12:36:00,58.5,24.6,29.97,WSW,256,3.6,5.4,27,0.00,,---,0.00,VWS V14.00,2013-01-18 20:36:00,
2013-01-18 12:41:00,58.8,24.9,29.97,NNW,343,5.4,5.4,27,0.00,,---,0.00,VWS V14.00,2013-01-18 20:41:00,
2013-01-18 12:47:00,58.6,24.8,29.97,NW,307,5.4,5.4,27,0.00,,---,0.00,VWS V14.00,2013-01-18 20:47:00,
2013-01-18 12:52:00,58.5,24.6,29.97,NW,322,4.0,4.0,27,0.00,,---,0.00,VWS V14.00,2013-01-18 20:52:00,
2013-01-18 12:58:00,58.5,24.6,29.97,NW,322,4.0,4.0,27,0.00,,---,0.00,VWS V14.00,2013-01-18 20:58:00,
2013-01-18 13:03:00,58.8,24.9,29.97,WNW,283,4.0,4.0,27,0.00,,---,0.00,VWS V14.00,2013-01-18 21:03:00,
2013-01-18 13:08:00,59.0,24.2,29.97,NW,309,5.4,5.4,26,0.00,,---,0.00,VWS V14.00,2013-01-18 21:08:00,
2013-01-18 13:13:00,59.4,24.5,29.97,NW,315,5.8,5.8,26,0.00,,---,0.00,VWS V14.00,2013-01-18 21:13:00,
2013-01-18 13:18:00,59.4,24.5,29.97,NNW,331,4.0,4.0,26,0.00,,---,0.00,VWS V14.00,2013-01-18 21:18:00,
2013-01-18 13:24:00,59.7,23.9,29.97,NNW,329,4.5,5.8,25,0.00,,---,0.00,VWS V14.00,2013-01-18 21:24:00,
2013-01-18 13:29:00,59.7,23.9,29.97,North,0,3.1,4.0,25,0.00,,---,0.00,VWS V14.00,2013-01-18 21:29:00,
2013-01-18 13:35:00,59.9,24.0,29.94,NNW,335,3.1,6.3,25,0.00,,---,0.00,VWS V14.00,2013-01-18 21:35:00,
2013-01-18 13:40:00,60.1,24.2,29.94,West,262,5.4,6.3,25,0.00,,---,0.00,VWS V14.00,2013-01-18 21:40:00,
2013-01-18 13:45:00,60.8,24.8,29.94,NNW,346,5.4,5.4,25,0.00,,---,0.00,VWS V14.00,2013-01-18 21:45:00,
2013-01-18 13:50:00,60.6,24.6,29.94,NNW,334,4.0,6.3,25,0.00,,---,0.00,VWS V14.00,2013-01-18 21:50:00,
2013-01-18 13:56:00,60.4,24.5,29.94,NW,319,4.0,4.0,25,0.00,,---,0.00,VWS V14.00,2013-01-18 21:56:00,
2013-01-18 14:01:00,60.4,24.5,29.94,North,0,4.0,4.0,25,0.00,,---,0.00,VWS V14.00,2013-01-18 22:01:00,
2013-01-18 14:06:00,60.4,24.5,29.94,North,1,4.0,6.3,25,0.00,,---,0.00,VWS V14.00,2013-01-18 22:06:00,
2013-01-18 14:11:00,60.8,23.8,29.94,West,262,4.0,4.0,24,0.00,,---,0.00,VWS V14.00,2013-01-18 22:11:00,
2013-01-18 14:16:00,61.2,24.1,29.94,North,4,3.1,3.1,24,0.00,,---,0.00,VWS V14.00,2013-01-18 22:16:00,
2013-01-18 14:21:00,61.2,24.1,29.94,WNW,285,2.7,4.0,24,0.00,,---,0.00,VWS V14.00,2013-01-18 22:21:00,
2013-01-18 14:27:00,61.7,24.6,29.94,NNW,346,5.8,5.8,24,0.00,,---,0.00,VWS V14.00,2013-01-18 22:27:00,
2013-01-18 14:32:00,61.5,24.4,29.94,NW,315,5.4,5.8,24,0.00,,---,0.00,VWS V14.00,2013-01-18 22:32:00,
2013-01-18 14:37:00,61.7,24.6,29.94,NNW,333,4.0,6.3,24,0.00,,---,0.00,VWS V14.00,2013-01-18 22:37:00,
2013-01-18 14:42:00,61.5,24.4,29.94,NNW,341,4.0,4.9,24,0.00,,---,0.00,VWS V14.00,2013-01-18 22:42:00,
2013-01-18 14:47:00,61.5,24.4,29.94,WNW,299,6.3,6.3,24,0.00,,---,0.00,VWS V14.00,2013-01-18 22:47:00,
2013-01-18 14:52:00,61.3,24.3,29.94,NW,322,4.9,4.9,24,0.00,,---,0.00,VWS V14.00,2013-01-18 22:52:00,
2013-01-18 14:58:00,61.5,24.4,29.94,NW,310,3.6,4.0,24,0.00,,---,0.00,VWS V14.00,2013-01-18 22:58:00,
2013-01-18 15:03:00,61.7,24.6,29.94,NNW,338,3.6,3.6,24,0.00,,---,0.00,VWS V14.00,2013-01-18 23:03:00,
2013-01-18 15:08:00,61.7,24.6,29.94,WNW,297,5.4,5.4,24,0.00,,---,0.00,VWS V14.00,2013-01-18 23:08:00,
2013-01-18 15:13:00,61.9,24.7,29.94,WNW,290,6.3,6.3,24,0.00,,---,0.00,VWS V14.00,2013-01-18 23:13:00,
2013-01-18 15:19:00,61.9,24.7,29.94,NW,310,4.0,4.0,24,0.00,,---,0.00,VWS V14.00,2013-01-18 23:19:00,
2013-01-18 15:24:00,61.9,24.7,29.94,North,6,4.0,4.0,24,0.00,,---,0.00,VWS V14.00,2013-01-18 23:24:00,
2013-01-18 15:30:00,61.2,24.1,29.94,NW,326,4.9,5.4,24,0.00,,---,0.00,VWS V14.00,2013-01-18 23:30:00,
2013-01-18 15:35:00,61.0,24.0,29.94,North,2,6.3,6.3,24,0.00,,---,0.00,VWS V14.00,2013-01-18 23:35:00,
2013-01-18 15:40:00,60.6,21.6,29.94,NNW,335,4.0,4.0,22,0.00,,---,0.00,VWS V14.00,2013-01-18 23:40:00,
2013-01-18 15:46:00,60.6,21.6,29.94,North,357,4.9,4.9,22,0.00,,---,0.00,VWS V14.00,2013-01-18 23:46:00,
2013-01-18 15:52:00,60.3,21.3,29.94,NW,315,3.1,3.1,22,0.00,,---,0.00,VWS V14.00,2013-01-18 23:52:00,
2013-01-18 15:57:00,59.9,23.0,29.94,NNW,342,5.4,5.4,24,0.00,,---,0.00,VWS V14.00,2013-01-18 23:57:00,
2013-01-18 16:03:00,59.4,22.6,29.94,WNW,302,2.7,2.7,24,0.00,,---,0.00,VWS V14.00,2013-01-19 00:03:00,
2013-01-18 16:09:00,59.2,20.4,29.94,NW,307,3.6,3.6,22,0.00,,---,0.00,VWS V14.00,2013-01-19 00:09:00,
2013-01-18 16:14:00,58.6,19.9,29.94,NW,317,2.7,2.7,22,0.00,,---,0.00,VWS V14.00,2013-01-19 00:14:00,
2013-01-18 16:19:00,58.5,19.8,29.94,NW,312,2.7,4.0,22,0.00,,---,0.00,VWS V14.00,2013-01-19 00:19:00,
2013-01-18 16:24:00,58.1,19.5,29.94,NW,308,2.7,2.7,22,0.00,,---,0.00,VWS V14.00,2013-01-19 00:24:00,
2013-01-18 16:30:00,57.9,19.3,29.94,NW,315,4.9,4.9,22,0.00,,---,0.00,VWS V14.00,2013-01-19 00:30:00,
2013-01-18 16:35:00,57.4,20.9,29.94,NW,307,2.2,2.7,24,0.00,,---,0.00,VWS V14.00,2013-01-19 00:35:00,
2013-01-18 16:40:00,57.2,20.8,29.94,NW,309,2.7,2.7,24,0.00,,---,0.00,VWS V14.00,2013-01-19 00:40:00,
2013-01-18 16:46:00,56.8,21.4,29.94,NW,312,3.1,3.1,25,0.00,,---,0.00,VWS V14.00,2013-01-19 00:46:00,
2013-01-18 16:53:00,56.7,21.3,29.94,NW,319,3.1,3.1,25,0.00,,---,0.00,VWS V14.00,2013-01-19 00:53:00,
2013-01-18 16:58:00,56.1,20.8,29.94,NNW,337,2.7,2.7,25,0.00,,---,0.00,VWS V14.00,2013-01-19 00:58:00,
2013-01-18 17:03:00,55.2,21.0,29.94,NNW,338,0.0,0.0,26,0.00,,---,0.00,VWS V14.00,2013-01-19 01:03:00,
2013-01-18 17:09:00,54.1,20.0,29.94,NNW,338,0.0,0.0,26,0.00,,---,0.00,VWS V14.00,2013-01-19 01:09:00,
2013-01-18 17:15:00,53.4,19.4,29.94,NNW,337,0.0,0.0,26,0.00,,---,0.00,VWS V14.00,2013-01-19 01:15:00,
2013-01-18 17:20:00,52.0,18.2,29.94,NNW,337,0.0,0.0,26,0.00,,---,0.00,VWS V14.00,2013-01-19 01:20:00,
2013-01-18 17:26:00,50.7,18.0,29.94,NNW,337,0.0,0.0,27,0.00,,---,0.00,VWS V14.00,2013-01-19 01:26:00,
2013-01-18 17:31:00,50.4,17.7,29.94,NNW,338,0.0,0.0,27,0.00,,---,0.00,VWS V14.00,2013-01-19 01:31:00,
2013-01-18 17:37:00,48.7,17.1,29.94,NNW,337,0.0,0.0,28,0.00,,---,0.00,VWS V14.00,2013-01-19 01:37:00,
2013-01-18 17:43:00,47.5,16.0,29.94,NNW,338,0.0,0.0,28,0.00,,---,0.00,VWS V14.00,2013-01-19 01:43:00,
2013-01-18 17:48:00,47.5,16.0,29.94,NNW,337,0.0,0.0,28,0.00,,---,0.00,VWS V14.00,2013-01-19 01:48:00,
2013-01-18 17:53:00,46.4,15.9,29.94,NNW,337,0.0,0.0,29,0.00,,---,0.00,VWS V14.00,2013-01-19 01:53:00,
2013-01-18 17:59:00,45.5,15.9,29.94,NNW,337,0.0,0.0,30,0.00,,---,0.00,VWS V14.00,2013-01-19 01:59:00,
2013-01-18 18:04:00,44.8,16.0,29.94,NNW,337,0.0,0.0,31,0.00,,---,0.00,VWS V14.00,2013-01-19 02:04:00,
2013-01-18 18:09:00,44.2,16.3,29.94,NNW,337,0.0,0.0,32,0.00,,---,0.00,VWS V14.00,2013-01-19 02:09:00,
2013-01-18 18:14:00,43.9,16.7,29.94,NNW,337,0.0,0.0,33,0.00,,---,0.00,VWS V14.00,2013-01-19 02:14:00,
2013-01-18 18:20:00,43.2,16.7,29.94,NNW,337,0.0,0.0,34,0.00,,---,0.00,VWS V14.00,2013-01-19 02:20:00,
2013-01-18 18:26:00,42.6,16.9,29.94,NNW,338,0.0,0.0,35,0.00,,---,0.00,VWS V14.00,2013-01-19 02:26:00,
2013-01-18 18:32:00,42.3,17.2,29.94,NNW,338,0.0,0.0,36,0.00,,---,0.00,VWS V14.00,2013-01-19 02:32:00,
2013-01-18 18:37:00,41.9,17.5,29.94,NNW,337,0.0,0.0,37,0.00,,---,0.00,VWS V14.00,2013-01-19 02:37:00,
2013-01-18 18:42:00,41.5,17.8,29.94,NNW,337,0.0,0.0,38,0.00,,---,0.00,VWS V14.00,2013-01-19 02:42:00,
2013-01-18 18:47:00,41.2,17.5,29.94,NNW,337,0.0,0.0,38,0.00,,---,0.00,VWS V14.00,2013-01-19 02:47:00,
2013-01-18 18:53:00,41.0,17.4,29.94,NNW,337,0.0,0.0,38,0.00,,---,0.00,VWS V14.00,2013-01-19 02:53:00,
2013-01-18 18:58:00,40.8,17.8,29.94,NNW,338,0.0,0.0,39,0.00,,---,0.00,VWS V14.00,2013-01-19 02:58:00,
2013-01-18 19:03:00,40.5,17.5,29.94,NNW,337,0.0,0.0,39,0.00,,---,0.00,VWS V14.00,2013-01-19 03:03:00,
2013-01-18 19:08:00,40.3,17.3,29.94,NNW,338,0.0,0.0,39,0.00,,---,0.00,VWS V14.00,2013-01-19 03:08:00,
2013-01-18 19:14:00,39.9,17.0,29.94,NNW,338,0.0,0.0,39,0.00,,---,0.00,VWS V14.00,2013-01-19 03:14:00,
2013-01-18 19:19:00,39.6,17.2,29.94,NNW,337,0.0,0.0,40,0.00,,---,0.00,VWS V14.00,2013-01-19 03:19:00,
2013-01-18 19:25:00,39.6,17.2,29.94,NNW,338,0.0,0.0,40,0.00,,---,0.00,VWS V14.00,2013-01-19 03:25:00,
2013-01-18 19:30:00,39.4,17.1,29.94,NNW,338,0.0,0.0,40,0.00,,---,0.00,VWS V14.00,2013-01-19 03:30:00,
2013-01-18 19:35:00,38.8,17.2,29.94,NNW,337,0.0,0.0,41,0.00,,---,0.00,VWS V14.00,2013-01-19 03:35:00,
2013-01-18 19:41:00,38.7,17.0,29.94,NNW,337,0.0,0.0,41,0.00,,---,0.00,VWS V14.00,2013-01-19 03:41:00,
2013-01-18 19:47:00,38.5,16.8,29.94,NNW,337,0.0,0.0,41,0.00,,---,0.00,VWS V14.00,2013-01-19 03:47:00,
2013-01-18 19:53:00,38.1,17.1,29.94,NNW,338,0.0,0.0,42,0.00,,---,0.00,VWS V14.00,2013-01-19 03:53:00,
2013-01-18 19:58:00,37.9,16.9,29.94,NNW,337,0.0,0.0,42,0.00,,---,0.00,VWS V14.00,2013-01-19 03:58:00,
2013-01-18 20:03:00,37.8,16.8,29.94,NNW,337,0.0,0.0,42,0.00,,---,0.00,VWS V14.00,2013-01-19 04:03:00,
2013-01-18 20:09:00,37.8,16.8,29.94,NNW,338,0.0,0.0,42,0.00,,---,0.00,VWS V14.00,2013-01-19 04:09:00,
2013-01-18 20:15:00,37.6,17.1,29.94,NNW,337,0.0,0.0,43,0.00,,---,0.00,VWS V14.00,2013-01-19 04:15:00,
2013-01-18 20:20:00,37.4,17.0,29.94,NNW,338,0.0,0.0,43,0.00,,---,0.00,VWS V14.00,2013-01-19 04:20:00,
2013-01-18 20:25:00,37.2,17.3,29.94,NNW,337,0.0,0.0,44,0.00,,---,0.00,VWS V14.00,2013-01-19 04:25:00,
2013-01-18 20:30:00,37.0,17.2,29.94,NNW,337,0.0,0.0,44,0.00,,---,0.00,VWS V14.00,2013-01-19 04:30:00,
2013-01-18 20:36:00,36.9,17.0,29.94,NNW,337,0.0,0.0,44,0.00,,---,0.00,VWS V14.00,2013-01-19 04:36:00,
2013-01-18 20:42:00,36.5,17.2,29.94,NNW,337,0.0,0.0,45,0.00,,---,0.00,VWS V14.00,2013-01-19 04:42:00,
2013-01-18 20:47:00,36.3,17.0,29.94,NNW,338,0.0,0.0,45,0.00,,---,0.00,VWS V14.00,2013-01-19 04:47:00,
2013-01-18 20:52:00,36.3,17.0,29.94,NNW,338,0.0,0.0,45,0.00,,---,0.00,VWS V14.00,2013-01-19 04:52:00,
2013-01-18 20:57:00,36.0,17.2,29.94,NNW,337,0.0,0.0,46,0.00,,---,0.00,VWS V14.00,2013-01-19 04:57:00,
2013-01-18 21:01:00,36.0,17.2,29.94,NNW,337,0.0,0.0,46,0.00,,---,0.00,VWS V14.00,2013-01-19 05:01:00,
2013-01-18 21:02:00,36.0,17.2,29.94,NNW,337,0.0,0.0,46,0.00,,---,0.00,VWS V14.00,2013-01-19 05:02:00,
2013-01-18 21:03:00,36.0,17.2,29.94,NNW,338,0.0,0.0,46,0.00,,---,0.00,VWS V14.00,2013-01-19 05:03:00,
2013-01-18 21:09:00,36.0,17.2,29.94,NNW,338,0.0,0.0,46,0.00,,---,0.00,VWS V14.00,2013-01-19 05:09:00,
2013-01-18 21:14:00,35.8,17.5,29.94,NNW,337,0.0,0.0,47,0.00,,---,0.00,VWS V14.00,2013-01-19 05:14:00,
2013-01-18 21:20:00,35.8,17.5,29.94,NNW,338,0.0,0.0,47,0.00,,---,0.00,VWS V14.00,2013-01-19 05:20:00,
2013-01-18 21:25:00,35.6,17.4,29.94,NNW,337,0.0,0.0,47,0.00,,---,0.00,VWS V14.00,2013-01-19 05:25:00,
2013-01-18 21:30:00,35.4,17.7,29.94,NNW,338,0.0,0.0,48,0.00,,---,0.00,VWS V14.00,2013-01-19 05:30:00,
2013-01-18 21:36:00,35.4,18.2,29.94,NNW,337,0.0,0.0,49,0.00,,---,0.00,VWS V14.00,2013-01-19 05:36:00,
2013-01-18 21:42:00,35.2,18.0,29.94,NNW,337,0.0,0.0,49,0.00,,---,0.00,VWS V14.00,2013-01-19 05:42:00,
2013-01-18 21:47:00,35.1,17.8,29.94,NNW,338,0.0,0.0,49,0.00,,---,0.00,VWS V14.00,2013-01-19 05:47:00,
2013-01-18 21:53:00,35.1,18.3,29.94,NNW,337,0.0,0.0,50,0.00,,---,0.00,VWS V14.00,2013-01-19 05:53:00,
2013-01-18 21:59:00,35.1,18.3,29.94,NNW,338,0.0,0.0,50,0.00,,---,0.00,VWS V14.00,2013-01-19 05:59:00,
2013-01-18 22:04:00,34.9,18.1,29.94,NNW,338,0.0,0.0,50,0.00,,---,0.00,VWS V14.00,2013-01-19 06:04:00,
2013-01-18 22:09:00,34.7,18.0,29.94,NNW,337,0.0,0.0,50,0.00,,---,0.00,VWS V14.00,2013-01-19 06:09:00,
2013-01-18 22:15:00,34.7,18.0,29.94,NNW,337,0.0,0.0,50,0.00,,---,0.00,VWS V14.00,2013-01-19 06:15:00,
2013-01-18 22:20:00,34.3,17.6,29.94,NNW,338,0.0,0.0,50,0.00,,---,0.00,VWS V14.00,2013-01-19 06:20:00,
2013-01-18 22:25:00,34.3,17.6,29.94,NNW,337,0.0,0.0,50,0.00,,---,0.00,VWS V14.00,2013-01-19 06:25:00,
2013-01-18 22:30:00,34.2,17.9,29.94,NNW,337,0.0,0.0,51,0.00,,---,0.00,VWS V14.00,2013-01-19 06:30:00,
2013-01-18 22:35:00,34.0,17.8,29.94,NNW,338,0.0,0.0,51,0.00,,---,0.00,VWS V14.00,2013-01-19 06:35:00,
2013-01-18 22:41:00,34.0,17.8,29.94,NNW,337,0.0,0.0,51,0.00,,---,0.00,VWS V14.00,2013-01-19 06:41:00,
2013-01-18 22:46:00,34.0,17.8,29.94,NNW,338,0.0,0.0,51,0.00,,---,0.00,VWS V14.00,2013-01-19 06:46:00,
2013-01-18 22:51:00,33.8,17.6,29.94,NNW,338,0.0,0.0,51,0.00,,---,0.00,VWS V14.00,2013-01-19 06:51:00,
2013-01-18 22:57:00,33.6,17.9,29.94,NNW,338,0.0,0.0,52,0.00,,---,0.00,VWS V14.00,2013-01-19 06:57:00,
2013-01-18 23:02:00,33.4,17.7,29.94,NNW,338,0.0,0.0,52,0.00,,---,0.00,VWS V14.00,2013-01-19 07:02:00,
2013-01-18 23:07:00,33.4,17.7,29.94,NNW,338,0.0,0.0,52,0.00,,---,0.00,VWS V14.00,2013-01-19 07:07:00,
2013-01-18 23:13:00,33.3,17.5,29.94,NNW,338,0.0,0.0,52,0.00,,---,0.00,VWS V14.00,2013-01-19 07:13:00,
2013-01-18 23:19:00,33.3,17.5,29.94,NNW,337,0.0,0.0,52,0.00,,---,0.00,VWS V14.00,2013-01-19 07:19:00,
2013-01-18 23:24:00,33.1,17.4,29.94,NNW,337,0.0,0.0,52,0.00,,---,0.00,VWS V14.00,2013-01-19 07:24:00,
2013-01-18 23:29:00,33.1,17.8,29.94,NNW,337,0.0,0.0,53,0.00,,---,0.00,VWS V14.00,2013-01-19 07:29:00,
2013-01-18 23:34:00,33.3,18.0,29.94,NNW,338,0.0,0.0,53,0.00,,---,0.00,VWS V14.00,2013-01-19 07:34:00,
2013-01-18 23:40:00,33.3,18.0,29.94,NNW,337,0.0,0.0,53,0.00,,---,0.00,VWS V14.00,2013-01-19 07:40:00,
2013-01-18 23:45:00,33.3,18.0,29.94,NNW,337,0.0,0.0,53,0.00,,---,0.00,VWS V14.00,2013-01-19 07:45:00,
2013-01-18 23:50:00,33.3,18.0,29.94,NNW,338,0.0,0.0,53,0.00,,---,0.00,VWS V14.00,2013-01-19 07:50:00,
2013-01-18 23:55:00,33.3,18.0,29.94,NNW,338,0.0,0.0,53,0.00,,---,0.00,VWS V14.00,2013-01-19 07:55:00,